Flag Weather past 2 weeks in Augsburg, Bavaria, Germany

Now
39 °F

Overcast.


Feels Like: 35 °F
Forecast: 35 / 43 °F
Wind: 6 mph from Southeast

Location: Augsburg Airport

Current Time: Nov 27, 2014 at 11:14:47 PM

Latest Report: Nov 27, 2014 at 8:50 PM


Visibility: 4 mi

Pressure: 29.83 "Hg

Humidity: 100%

Dew point: 39 °F

Location of AugsburgLocation

Historic Weather in Augsburg — Graph

°F

Augsburg temperature yesterday

Maximum temperature yesterday: 39 °F (at 12:20 PM)
Minimum temperature yesterday: 37 °F (at 5:50 AM)
Average temperature yesterday: 38 °F

Past Weeks' High & Low Weather Summary

 TemperatureHumidityPressure
High52 °F (Nov 16, 11:50 AM)100% (Nov 12, 8:20 PM)30.30 "Hg (Nov 12, 8:20 PM)
Low34 °F (Nov 17, 6:20 AM)62% (Nov 16, 12:50 PM)29.53 "Hg (Nov 15, 8:20 PM)
Average42 °F98%29.97 "Hg
* Reported Nov 12 8:20 PM — Nov 27 8:50 PM, Augsburg, Weather by CustomWeather, © 2014

Note: Actual official high and low records may vary slightly from our data, if they occured in-between our weather recording intervals... More about our weather records

Advertising

Augsburg weather history for previous 24 hours

 ConditionsComfort  
Time TempWeatherWind HumidityBarometerVisibility
8:50 PM
Nov 27
39 °FOvercast.6 mph100%29.83 "Hg4 mi
8:20 PM39 °FOvercast.5 mph100%29.83 "Hg4 mi
7:50 PM39 °FLow clouds.5 mph100%29.83 "Hg4 mi
7:20 PM39 °FLow clouds.2 mph100%29.83 "Hg4 mi
6:50 PM39 °FOvercast.2 mph100%29.83 "Hg4 mi
6:20 PM39 °FOvercast.3 mph100%29.80 "Hg4 mi
5:50 PM41 °FOvercast.6 mph93%29.80 "Hg3 mi
5:20 PM39 °FOvercast.1 mph100%29.80 "Hg3 mi
4:50 PM39 °FOvercast.3 mph100%29.80 "Hg3 mi
4:20 PM39 °FOvercast.3 mph100%29.80 "Hg4 mi
3:50 PM41 °FOvercast.3 mph93%29.80 "Hg4 mi
3:20 PM41 °FOvercast.3 mph93%29.80 "Hg4 mi
2:50 PM41 °FOvercast.3 mph87%29.80 "Hg4 mi
2:20 PM39 °FLow clouds.5 mph93%29.80 "Hg4 mi
1:50 PM39 °FLow clouds.9 mph100%29.80 "Hg3 mi
1:20 PM39 °FLow clouds.5 mph100%29.80 "Hg4 mi
12:50 PM39 °FLow clouds.7 mph100%29.80 "Hg4 mi
12:20 PM39 °FFog.6 mph100%29.83 "Hg2 mi
11:50 AM37 °FFog.9 mph100%29.83 "Hg1 mi
11:20 AM37 °FFog.7 mph100%29.83 "Hg1 mi
10:50 AM37 °FFog.8 mph100%29.83 "Hg1 mi
10:20 AM37 °FFog.7 mph100%29.86 "Hg1 mi
9:20 AM37 °FFog.7 mph100%29.86 "Hg1 mi
8:50 AM37 °FFog.6 mph100%29.86 "Hg1 mi
8:20 AM37 °FFog.6 mph100%29.86 "Hg1 mi
7:50 AM37 °FFog.6 mph100%29.86 "Hg1 mi
7:20 AM37 °FFog.7 mph100%29.86 "Hg1 mi
6:50 AM37 °FFog.6 mph100%29.86 "Hg1 mi
6:20 AM37 °FFog.6 mph100%29.86 "Hg1 mi
5:50 AM37 °FFog.7 mph100%29.86 "Hg1 mi
Weather by CustomWeather, © 2014

See weather overviewHow to use our weather pages